Wind_Speed
19 20 20 22 25 29 32 32 33 32 32 31 30 29 27 26 24 23 23 22 20 20 19 18 17 16 15 14 14 14 14 15 15 16 16 16 16 16 16 16 16 16 16 17 17 16 16 17 18 19 20 19 19 19 20 20 20 20 22 24 25 25 24 22 20 19 18 18 17 17 17 17 17 18 19 20 21 22 22 24 25 24 23 24 27
16 18 20 21 22 26 29 31 32 32 33 33 32 31 30 29 28 27 26 24 23 22 21 20 19 18 17 16 16 16 16 16 16 17 17 18 18 17 17 17 17 17 17 17 17 16 16 16 17 18 19 19 19 19 19 20 20 19 20 21 23 25 25 24 22 21 20 19 18 18 18 19 19 19 20 21 21 22 24 25 26 26 26 26 27
14 16 19 21 21 22 26 29 31 31 32 33 33 33 32 32 31 29 28 27 26 25 24 23 21 20 19 19 18 18 18 18 18 18 18 19 19 19 19 18 18 18 18 18 18 17 16 16 16 17 17 18 18 18 18 19 19 19 19 19 21 23 24 24 24 23 22 21 19 19 19 20 21 21 21 22 22 23 24 25 27 29 28 27 27
13 15 17 19 21 21 24 28 30 30 31 32 33 34 33 33 33 32 30 29 28 27 26 25 24 23 22 21 20 20 20 20 20 20 20 20 21 21 21 20 20 19 19 19 18 18 17 16 16 16 16 17 18 18 18 18 19 19 19 19 19 20 22 23 24 24 23 23 21 20 20 21 22 23 23 22 22 23 23 24 26 26 27 27 27
15 14 15 17 20 22 24 27 29 31 31 31 31 32 33 33 34 33 31 31 31 30 29 28 27 25 24 23 22 22 23 22 21 21 22 22 22 23 22 22 21 21 20 20 19 19 19 17 16 16 16 16 17 17 17 17 18 18 19 19 18 19 20 21 23 24 24 24 23 22 21 21 23 24 24 24 24 25 24 24 24 25 26 26 27
17 16 16 17 19 21 24 26 29 31 31 30 29 30 31 32 32 32 32 31 32 31 31 30 29 28 26 25 25 24 25 24 23 23 23 23 24 24 24 23 23 22 22 21 20 20 20 19 17 16 16 16 16 17 17 17 17 18 18 19 19 19 19 19 21 22 24 24 24 24 23 22 22 24 24 25 26 26 25 24 24 25 26 26 28
21 19 18 18 19 20 23 26 28 30 31 30 28 29 30 31 31 31 31 31 31 32 31 31 30 29 28 27 27 27 27 26 25 25 24 25 25 25 25 25 24 24 23 22 22 21 21 21 19 18 16 16 16 17 17 17 17 17 18 18 19 19 19 19 19 20 22 24 24 24 24 23 23 23 25 25 26 26 26 25 23 24 26 28 30
25 22 21 21 20 20 21 23 26 29 30 30 29 28 30 31 31 30 30 30 30 30 30 30 29 29 29 28 28 28 28 28 27 26 26 26 27 27 26 26 25 25 24 23 23 23 22 22 21 19 18 17 17 17 17 17 17 18 18 18 19 19 19 19 19 19 20 22 23 24 24 24 24 24 25 26 26 26 26 26 25 25 26 29 30
28 26 24 23 22 20 20 21 24 27 30 31 30 29 29 30 31 31 31 31 30 30 30 29 29 29 29 29 29 29 29 29 28 27 27 27 28 28 27 27 26 26 25 24 24 23 23 23 22 22 20 18 18 18 18 18 18 18 18 18 19 19 20 20 19 19 19 20 22 24 25 25 24 24 25 26 26 26 26 26 26 27 28 29 29
31 29 27 26 23 21 20 21 23 25 28 31 31 30 29 29 30 31 32 32 31 30 30 30 30 30 30 30 30 30 30 29 28 28 28 28 29 29 28 28 27 27 26 25 25 25 24 24 23 23 22 20 19 19 19 19 18 19 19 19 19 20 20 20 20 20 20 20 21 23 25 26 25 24 25 26 27 27 27 27 27 28 29 29 29
33 31 29 27 25 22 22 21 22 23 26 29 31 31 30 30 30 31 31 32 32 32 32 32 32 31 31 31 31 31 31 30 29 29 29 29 30 29 29 29 28 28 27 26 26 26 26 25 25 24 23 22 21 21 21 20 20 20 20 20 20 21 21 21 21 22 21 21 21 22 24 25 26 25 25 26 27 27 28 28 29 29 30 30 30
34 32 30 29 27 25 24 23 22 23 25 27 30 32 32 32 32 32 32 32 32 32 33 34 34 33 32 32 32 33 33 32 30 30 30 30 31 30 30 30 29 29 29 28 28 28 27 27 26 26 25 25 24 23 23 22 22 22 21 21 21 22 22 22 22 23 23 22 22 22 23 24 26 26 26 26 26 27 28 29 29 29 30 30 30
35 34 32 30 30 28 26 24 24 24 25 26 28 31 33 34 34 35 34 33 32 32 33 35 35 35 34 34 35 34 34 33 32 31 31 31 32 32 32 31 30 30 30 30 30 30 29 29 28 27 27 26 26 26 25 25 25 24 23 23 23 23 23 23 23 24 24 24 23 23 23 24 25 27 27 27 27 27 28 28 29 29 29 30 31
37 36 34 32 32 30 28 26 25 26 26 26 27 29 32 34 36 36 36 35 33 33 34 35 35 36 36 36 36 36 36 36 35 34 33 33 33 34 33 33 32 32 32 31 31 32 31 31 30 30 29 29 28 28 28 28 28 27 26 26 26 26 25 25 24 25 26 26 25 24 24 24 25 27 28 28 28 28 28 29 30 30 29 30 30
40 38 36 34 34 33 31 28 28 28 28 28 28 28 30 33 35 37 38 37 36 35 35 35 35 36 37 37 37 37 37 37 37 36 35 35 35 35 36 35 34 33 33 33 33 33 33 33 33 32 32 32 31 31 30 31 32 31 30 29 28 28 28 27 26 26 27 27 27 26 25 24 25 27 28 28 28 28 29 29 30 31 31 31 31
42 40 39 37 36 36 34 31 30 30 30 30 29 29 30 32 34 36 38 39 38 37 36 36 36 37 37 38 38 38 39 39 38 38 37 36 37 38 38 38 37 36 35 34 35 35 35 35 35 35 35 34 34 33 33 33 34 35 34 32 32 31 30 29 28 28 28 28 28 28 27 26 26 26 28 28 29 29 29 30 31 32 32 32 31
44 42 41 39 39 38 36 34 33 33 32 31 30 29 29 31 33 35 36 38 39 39 39 39 38 36 36 38 40 41 41 41 41 40 38 38 39 40 40 40 39 38 37 37 37 37 37 38 38 37 37 37 37 36 36 35 36 36 36 35 34 34 33 32 30 29 29 29 29 30 29 28 27 27 27 28 29 29 30 31 31 32 33 33 32
45 44 43 42 41 40 38 36 35 35 35 33 31 30 30 31 32 34 35 37 38 39 40 40 40 38 37 38 40 41 41 43 44 43 41 40 41 42 42 42 41 40 39 39 39 39 39 39 39 39 39 39 39 39 38 37 37 37 37 37 36 35 34 34 33 32 30 30 30 31 32 31 30 29 28 29 29 30 30 31 32 33 34 34 34
46 46 45 44 43 42 41 39 38 37 37 36 34 33 32 31 32 33 34 36 38 39 39 40 41 41 39 39 39 38 39 41 44 45 44 43 43 43 44 44 43 42 41 40 40 40 40 40 40 40 40 40 40 40 39 39 39 38 38 38 37 37 36 35 34 34 33 32 31 32 33 33 32 31 31 30 30 30 31 32 33 34 35 36 36
48 47 47 46 45 45 43 41 40 40 39 37 36 35 34 33 33 33 34 35 37 38 39 40 41 42 42 41 40 38 37 38 41 43 44 45 45 45 46 47 46 43 42 42 42 41 40 40 40 39 40 41 41 41 40 40 39 39 39 38 38 37 37 36 36 35 34 34 33 33 34 34 33 33 32 32 31 31 32 33 34 35 36 37 38
49 48 48 48 48 47 46 44 43 43 41 39 38 38 37 36 35 34 34 34 36 38 39 40 40 41 42 43 43 41 39 38 39 41 42 43 44 46 48 49 47 45 44 44 43 42 40 40 40 40 40 41 42 42 41 40 40 39 38 38 38 37 37 37 36 36 35 35 35 35 35 34 33 33 33 33 33 34 34 34 35 36 37 38 40
51 51 51 50 50 49 48 47 46 44 42 41 40 40 39 37 36 35 34 34 35 37 38 39 40 41 41 42 44 45 43 41 40 40 40 41 42 45 48 49 47 45 45 45 43 42 41 41 41 40 39 40 42 42 41 41 40 39 38 37 37 36 36 36 37 36 35 35 35 35 35 35 34 34 34 34 34 35 36 36 36 37 37 38 39
53 53 52 51 50 50 50 50 48 46 44 43 41 41 39 38 37 36 35 35 35 36 37 38 40 40 41 42 43 45 46 44 43 42 41 40 41 42 45 46 44 43 43 43 42 41 41 41 41 40 40 40 41 42 42 41 39 37 37 37 37 36 35 36 36 35 35 34 34 35 35 34 34 34 34 34 34 35 36 36 37 38 39 39 39
54 54 54 52 51 52 53 52 49 47 45 43 42 42 41 38 38 37 36 36 36 35 36 37 39 40 41 42 43 44 45 46 46 45 43 41 41 41 42 43 43 42 42 42 41 41 41 41 41 41 40 40 40 40 41 41 39 37 36 36 36 35 35 35 35 34 34 33 33 33 33 33 33 34 34 34 35 36 37 38 39 40 41 41 41
54 55 56 54 52 53 54 53 50 48 45 44 44 44 42 40 39 39 38 37 37 36 36 37 38 40 41 42 43 44 44 45 47 47 46 44 44 43 44 45 45 45 44 43 42 41 41 40 40 40 39 38 37 38 39 40 39 37 35 35 36 35 35 34 34 33 33 32 32 32 32 32 33 33 34 35 36 38 39 41 43 44 44 44 42
55 57 58 56 53 54 54 53 52 49 46 45 46 45 43 41 40 40 40 39 38 38 37 37 38 39 40 41 42 43 43 45 47 48 48 48 48 47 46 45 45 44 43 42 41 40 39 37 37 37 37 36 36 36 37 38 38 37 36 35 35 35 35 34 33 33 32 31 31 32 32 33 34 35 35 36 39 40 42 44 46 46 46 44 42
56 58 59 57 54 54 54 54 54 51 48 48 48 47 45 43 42 42 42 41 40 39 39 38 38 39 41 41 41 41 42 44 46 48 49 50 50 49 48 47 46 44 43 41 39 38 37 36 36 35 35 35 35 35 36 37 38 37 36 35 35 35 35 35 34 34 33 32 31 33 34 34 36 37 38 39 42 43 44 45 46 45 44 42 38
59 60 60 58 56 55 55 55 54 52 51 51 51 49 47 45 44 44 44 43 42 41 40 40 40 40 41 41 41 41 42 44 46 48 49 50 50 50 49 49 48 46 45 43 41 39 38 37 36 35 35 35 35 36 36 37 37 37 36 35 35 35 35 36 35 35 34 34 33 35 36 36 38 40 41 43 45 45 45 45 45 43 40 36 34
61 61 59 57 57 57 57 57 56 54 54 53 52 50 48 47 46 46 45 44 43 42 42 41 41 41 41 42 43 43 44 45 46 47 49 50 50 50 50 50 49 48 46 44 42 41 40 38 36 36 36 36 36 37 37 36 36 36 36 36 36 36 36 37 37 36 36 36 36 36 38 39 41 43 45 46 47 46 46 45 44 41 38 35 34
62 60 58 58 58 59 59 58 56 56 56 55 53 52 50 48 48 47 47 45 44 43 43 42 41 41 41 42 43 44 45 46 46 46 48 49 49 49 50 50 49 48 47 45 43 42 40 39 38 38 38 37 37 38 37 37 37 37 37 37 38 38 38 39 38 37 38 38 38 39 41 43 45 46 47 48 49 50 49 49 46 41 38 37 37
61 59 58 58 60 60 60 59 57 57 57 56 55 53 51 50 49 49 48 46 45 44 44 44 43 42 42 42 43 45 46 46 46 47 48 48 48 48 49 50 50 50 48 46 45 44 42 42 42 41 41 40 40 40 39 39 40 40 39 39 40 40 40 41 41 40 41 42 43 44 46 47 48 50 51 53 53 53 53 51 47 42 38 38 40
61 59 58 60 60 60 60 59 58 58 58 57 56 54 52 51 51 50 49 48 47 46 46 45 45 44 44 44 45 46 46 46 46 47 48 49 48 48 48 48 49 50 50 48 46 45 45 44 44 44 44 43 43 42 42 41 41 42 41 41 42 42 42 43 43 43 44 45 46 48 49 50 50 50 51 52 52 52 51 48 45 41 39 39 40
60 58 58 59 61 61 61 60 60 59 59 58 57 56 54 53 52 52 51 50 49 48 48 47 47 46 45 45 46 46 46 46 46 47 48 49 49 48 48 48 48 49 50 49 48 48 47 47 47 47 47 46 45 45 45 44 43 44 44 44 44 45 45 45 45 45 47 48 49 49 49 47 45 44 44 47 50 51 49 45 42 40 40 40 41
59 57 57 59 60 61 62 61 61 61 60 59 58 56 55 54 53 53 53 51 50 50 50 49 49 48 46 46 46 47 47 47 46 47 47 48 48 48 48 47 47 48 49 49 50 50 50 50 50 49 49 49 48 47 47 47 46 46 47 47 47 47 47 48 47 48 49 48 47 45 43 39 37 37 39 42 47 48 47 45 42 41 42 43 44
55 54 56 58 60 63 64 63 63 63 61 60 59 58 57 56 55 54 54 53 52 52 51 51 50 49 48 47 47 47 47 47 47 46 46 46 46 47 47 47 47 48 48 49 50 51 51 51 51 51 50 50 50 49 50 49 49 48 49 49 49 49 50 50 49 49 48 43 38 37 38 36 36 38 40 42 45 47 48 49 47 45 45 47 48
50 51 54 57 62 67 69 67 65 64 62 61 60 60 59 58 57 56 55 54 53 53 53 52 52 50 49 48 48 48 47 47 47 47 47 46 46 46 46 46 46 47 48 48 49 50 51 51 51 51 50 50 51 51 51 50 50 50 49 49 50 50 49 49 47 46 44 41 38 39 41 40 39 40 42 43 45 46 46 47 46 45 45 47 49
50 51 52 57 64 70 72 71 67 65 65 64 62 61 61 60 58 57 56 55 54 54 54 54 53 52 51 50 49 48 47 47 47 47 47 47 47 47 46 46 45 45 46 47 47 48 49 49 49 48 49 49 49 49 49 49 49 48 47 47 47 46 44 43 43 43 44 43 43 44 44 41 39 40 42 43 43 44 44 45 46 47 48 50 50
52 51 51 54 61 67 71 72 69 67 66 65 65 64 63 62 61 59 57 56 55 56 57 56 55 54 53 52 50 49 47 46 47 47 47 47 47 47 47 46 45 46 47 47 47 47 47 47 46 46 46 47 47 46 46 45 44 44 44 44 43 41 39 39 41 43 44 44 44 44 43 41 41 44 44 43 44 46 48 49 49 50 51 51 52
57 53 50 49 53 57 62 65 68 70 69 68 67 67 65 63 62 60 58 58 58 58 58 57 55 53 53 52 51 49 48 47 47 47 48 48 47 47 47 46 46 47 47 47 47 47 46 45 45 45 45 45 44 43 43 41 40 40 42 42 42 39 38 40 42 43 42 42 43 43 41 40 44 47 45 42 44 47 49 52 53 53 54 54 55
63 58 52 48 47 50 55 60 66 72 71 68 66 65 65 64 63 61 60 59 59 59 59 57 55 54 54 52 51 50 49 48 48 48 48 48 47 47 47 47 47 47 47 47 47 46 45 44 44 44 44 44 43 42 41 39 37 36 37 39 41 39 39 42 45 42 39 38 41 42 41 40 44 46 46 46 50 52 54 56 58 59 59 60 61
65 62 56 50 46 46 51 58 66 72 72 67 65 66 67 66 64 63 62 61 60 60 60 58 57 57 56 54 52 50 50 49 49 49 49 49 48 47 47 48 48 47 47 47 47 46 45 44 43 43 43 43 42 41 40 39 38 36 36 38 40 38 39 45 50 48 45 45 49 52 51 49 48 49 51 54 58 60 61 62 62 62 63 64 64
64 65 65 62 58 55 55 59 68 75 76 71 68 68 68 67 65 63 62 62 61 62 62 61 60 59 58 55 53 51 51 51 52 51 50 50 49 49 49 49 48 48 47 47 47 47 46 45 44 43 43 42 42 42 40 38 37 39 40 42 42 40 40 47 51 50 49 49 52 54 56 56 56 57 58 59 61 63 64 66 66 66 66 67 68
66 66 70 74 75 75 73 72 74 78 78 74 71 68 65 64 63 62 62 62 63 63 63 62 61 60 58 56 54 53 53 53 54 52 51 51 51 51 50 49 48 48 48 48 48 47 47 46 45 44 44 43 43 43 42 40 39 40 41 42 41 40 41 45 48 50 52 53 54 55 56 58 60 62 62 61 62 64 65 67 68 68 69 70 71
71 70 73 79 82 83 84 84 82 78 71 65 63 62 61 61 62 62 62 62 63 63 63 63 62 60 59 57 56 55 55 55 55 54 53 53 52 52 51 49 49 49 49 49 49 49 48 47 47 46 45 45 45 45 45 43 42 42 42 40 40 42 45 47 50 53 55 56 57 58 59 59 60 61 62 62 64 65 65 67 69 71 72 73 74
72 74 77 83 85 85 86 87 88 85 77 68 63 62 62 62 62 62 62 63 64 64 64 63 62 60 59 58 58 58 57 57 57 56 54 53 51 51 50 50 50 51 51 49 50 51 51 50 49 48 48 48 47 47 47 45 44 45 45 44 43 46 51 52 52 54 55 56 57 59 61 62 63 63 64 65 66 67 68 69 71 72 74 75 75
71 72 73 77 82 86 88 89 90 90 87 82 78 74 70 67 65 63 63 63 63 63 63 63 62 61 60 60 60 60 60 59 58 56 54 52 50 50 51 52 53 54 53 51 51 52 53 53 52 51 51 51 50 49 49 48 47 48 49 49 49 50 53 55 56 57 58 58 59 60 62 64 65 66 66 68 69 70 71 72 72 73 74 75 75
76 75 75 74 75 78 82 87 89 89 88 86 83 80 76 73 70 68 66 66 66 66 65 65 64 63 62 62 62 62 61 59 57 54 52 51 51 53 55 56 56 56 55 54 53 54 55 55 54 54 54 54 53 52 52 52 51 52 52 53 54 55 57 58 60 60 61 61 62 63 65 67 68 68 69 70 71 72 73 73 73 73 74 74 75
76 76 77 78 77 76 77 80 83 84 84 83 81 79 77 76 74 73 71 71 70 69 68 67 66 64 64 64 63 61 59 56 54 52 52 53 55 57 59 59 58 58 57 56 56 56 57 57 57 57 57 57 57 56 56 56 56 56 56 57 57 58 60 61 62 63 64 64 65 67 68 69 70 71 71 72 73 74 74 75 75 74 74 75 76
75 75 75 77 79 79 79 78 77 77 78 78 78 78 78 76 74 72 71 71 71 70 70 70 69 66 64 61 59 58 57 56 56 57 58 59 59 61 61 61 61 61 60 60 59 59 59 59 59 59 60 60 60 60 60 60 59 60 60 60 61 62 63 64 65 66 66 67 68 69 70 71 71 72 73 74 75 75 76 76 75 75 75 76 77
70 73 73 75 77 78 77 77 76 76 76 76 76 76 75 73 71 70 68 68 68 68 67 68 67 64 61 59 58 59 60 61 62 63 64 63 62 63 64 64 64 64 64 64 63 62 62 62 62 62 62 62 63 63 63 63 62 63 63 63 63 64 65 66 66 67 68 69 70 70 71 72 72 73 74 75 76 76 76 76 75 76 77 78 77
65 67 68 70 73 74 74 73 72 71 71 71 72 71 71 70 68 65 63 64 64 64 63 63 63 62 62 62 62 63 65 66 67 68 69 68 68 68 69 69 68 68 67 66 66 65 64 64 64 64 64 64 64 64 64 64 64 64 64 65 65 66 67 67 68 69 70 71 72 73 73 74 75 76 77 77 77 76 76 76 77 78 79 78 77
Wind_Direction
242 242 240 234 223 216 213 212 214 215 217 221 224 227 229 231 233 235 239 242 245 249 253 257 261 266 272 278 284 290 295 300 304 308 311 315 318 322 326 329 330 332 332 332 334 339 345 350 355 0 3 5 7 8 10 12 12 13 14 15 14 11 9 7 5 5 7 10 12 9 6 4 4 6 7 9 10 8 9 13 14 15 19 25 26
248 247 244 241 234 227 223 219 217 217 218 220 223 226 229 232 233 235 238 242 245 248 252 255 259 263 268 273 278 284 289 293 297 301 304 307 310 314 317 321 324 326 327 327 327 330 335 340 346 353 357 1 3 4 6 8 9 9 10 11 12 11 8 6 3 1 359 1 4 3 358 355 355 358 359 0 2 3 2 3 5 7 12 21 24
247 249 249 246 241 235 231 228 224 221 219 220 223 226 229 232 234 235 237 241 244 247 251 254 258 261 264 269 274 279 283 287 291 295 298 301 304 307 309 313 316 319 321 322 323 324 326 330 335 343 349 354 357 360 1 3 5 5 6 6 8 8 7 5 2 359 356 355 356 356 353 349 347 349 352 352 354 356 357 358 1 3 6 12 17
241 247 251 251 247 239 234 234 233 230 225 222 223 225 228 231 235 236 237 240 244 247 250 253 256 259 262 266 270 274 278 282 286 289 293 296 298 301 304 306 309 312 314 316 317 318 318 320 325 331 339 345 350 354 357 359 0 1 1 2 2 3 4 3 1 358 355 352 351 351 349 345 341 342 345 345 346 350 354 356 358 357 357 359 5
236 241 246 250 249 243 237 235 236 237 234 228 225 226 228 231 234 237 238 240 244 246 249 252 255 257 260 264 267 270 274 277 281 284 287 290 293 295 297 300 302 305 308 309 311 312 312 313 315 320 327 334 340 346 351 354 355 356 356 356 356 356 358 360 359 356 354 351 349 348 346 344 340 338 339 340 342 347 351 353 352 349 349 351 354
232 235 238 242 244 244 241 238 238 240 241 237 231 229 230 233 235 237 239 241 244 247 249 251 254 257 259 262 264 267 270 273 276 279 282 285 287 289 292 294 297 299 301 303 305 305 306 307 308 311 316 323 329 336 341 346 349 351 351 351 351 350 350 353 355 354 351 349 348 347 345 343 339 335 336 339 341 343 345 348 347 344 343 343 342
234 232 235 238 239 240 241 241 242 244 246 245 240 235 233 235 237 238 239 241 244 246 249 251 254 256 258 260 262 264 266 269 272 274 277 280 282 284 286 289 291 294 295 298 299 300 301 302 304 305 308 313 319 325 330 336 341 344 346 346 346 345 344 345 347 348 347 345 344 344 344 343 341 338 336 337 338 338 339 341 342 338 336 336 336
237 233 233 236 237 238 240 241 244 247 249 250 247 242 238 238 238 239 240 242 243 246 248 250 252 254 256 258 259 261 263 266 268 271 273 276 277 279 282 284 286 288 290 292 294 295 297 298 300 301 303 305 310 315 320 325 330 335 338 340 340 340 339 338 338 340 341 341 339 339 340 342 343 340 336 336 336 335 335 335 333 331 331 332 335
240 237 236 237 238 239 240 240 241 244 248 251 251 248 245 243 242 242 242 243 244 245 248 249 251 252 254 255 257 259 261 263 265 267 270 271 273 275 278 280 282 284 285 288 289 291 292 294 296 298 299 300 302 306 311 315 320 324 329 332 333 333 333 332 331 331 332 333 334 334 336 339 342 340 335 334 334 333 332 331 329 328 328 330 334
241 241 240 240 239 240 242 243 241 241 242 247 251 251 249 247 247 246 246 247 246 246 247 249 250 251 252 254 256 257 259 261 262 264 266 269 270 272 274 277 278 280 282 283 285 286 288 290 292 294 295 296 297 299 303 307 311 314 319 323 325 326 326 326 326 324 324 326 328 330 331 333 336 338 336 334 334 332 331 330 329 327 328 330 332
240 242 243 244 242 241 242 244 245 243 242 243 246 248 248 248 248 249 249 250 250 249 249 249 250 250 252 254 255 257 258 260 261 263 264 267 268 270 272 274 275 277 279 280 281 283 284 286 288 290 292 293 294 295 297 300 303 307 310 314 318 319 320 321 321 320 319 320 321 323 326 327 329 332 334 334 334 334 332 330 329 328 329 330 330
239 241 243 245 245 243 242 244 245 246 245 243 242 244 246 247 247 248 248 249 250 251 251 251 251 251 251 253 255 256 258 260 261 262 263 265 267 269 270 272 273 275 276 278 279 280 282 283 285 287 289 291 292 293 294 296 298 301 304 307 310 313 315 317 316 316 315 314 314 316 319 320 322 325 329 332 333 333 332 330 328 327 327 328 327
239 241 241 243 245 244 243 244 245 247 247 246 244 242 243 244 245 247 247 247 249 252 252 252 253 253 253 253 254 256 258 260 260 261 262 264 266 267 269 270 271 273 275 277 278 280 281 282 284 286 287 289 290 291 293 294 295 297 299 302 304 306 310 313 312 311 311 310 310 311 312 314 316 318 323 327 329 331 331 330 328 327 326 326 326
238 239 239 240 243 245 244 243 244 247 248 248 247 245 243 244 245 246 247 247 247 249 251 252 254 255 255 255 256 257 258 259 260 260 261 262 264 266 268 269 270 271 273 275 277 278 280 282 284 285 286 287 288 290 291 292 293 295 296 298 299 301 304 307 308 306 306 306 308 308 308 309 311 313 317 321 324 326 328 328 327 326 326 325 326
237 238 238 239 241 244 244 242 243 246 248 249 250 249 247 246 246 246 247 247 246 247 250 252 253 255 256 257 258 259 259 260 260 260 260 261 263 265 266 267 268 270 272 273 275 277 278 281 282 284 285 286 286 288 289 291 292 293 294 295 296 298 300 303 304 303 302 302 305 305 305 304 305 307 311 314 318 321 323 324 324 325 326 325 324
237 238 238 238 240 242 243 243 243 245 247 250 252 253 252 250 249 248 248 248 248 246 248 250 252 253 256 258 259 260 260 260 261 261 260 260 262 263 264 266 267 268 270 272 273 275 277 278 281 282 283 284 285 286 287 289 290 292 293 294 295 296 297 299 299 299 298 299 301 303 303 302 301 303 306 309 313 316 319 321 322 323 324 323 322
237 238 238 238 239 241 243 243 244 246 248 250 252 254 255 254 253 252 250 249 249 248 247 249 251 253 256 258 259 260 260 261 262 262 260 259 260 261 263 264 266 267 268 270 271 273 275 277 278 280 281 283 284 285 286 288 289 290 292 293 294 294 295 296 296 296 295 297 298 300 302 302 300 300 302 305 309 313 315 318 319 320 321 321 320
237 238 239 239 240 241 243 243 245 247 249 251 252 254 255 256 257 257 255 253 252 250 249 249 250 251 254 259 262 263 262 262 262 261 260 259 259 261 262 263 264 266 267 268 270 271 273 275 277 279 280 282 283 284 286 288 289 290 292 293 294 294 294 294 294 293 293 294 296 298 300 301 300 299 300 303 307 311 313 315 316 317 318 319 319
235 237 239 240 241 243 243 243 244 247 249 251 253 254 255 257 259 260 259 257 255 254 252 250 249 249 251 255 262 266 266 265 263 262 260 259 259 260 261 263 264 265 267 268 269 270 272 274 276 278 279 281 283 285 287 289 290 292 293 294 294 294 293 292 293 293 293 293 294 296 298 300 300 300 300 303 306 309 311 313 314 315 317 317 317
233 236 239 241 242 243 244 244 244 246 249 251 254 255 257 258 260 261 261 260 259 258 256 253 251 250 249 251 256 262 266 268 267 265 263 260 259 259 261 263 265 266 268 268 268 270 272 274 275 277 279 281 283 287 289 291 293 294 294 295 294 293 293 292 292 292 292 292 293 294 296 298 298 299 300 302 306 308 310 313 314 315 316 316 315
234 235 238 241 243 244 245 245 245 246 249 250 253 255 258 260 263 265 266 266 264 263 262 259 256 254 252 251 253 257 262 266 268 269 268 265 262 260 261 263 267 268 268 269 270 271 273 275 276 277 280 282 285 288 291 293 293 294 295 295 294 293 293 292 291 291 291 291 292 293 294 296 296 297 299 302 305 307 310 313 314 314 314 314 313
236 236 237 241 244 245 246 247 247 248 249 250 252 256 259 263 265 268 270 271 270 269 268 266 262 259 257 254 253 254 257 261 266 269 271 272 270 267 265 267 270 271 271 272 274 275 275 275 276 278 281 284 286 289 291 292 293 294 295 294 293 293 292 292 291 291 290 290 290 292 293 295 295 296 298 302 305 307 309 312 312 311 310 310 310
237 238 239 241 244 246 247 248 249 250 250 252 254 257 261 264 266 269 272 273 274 273 272 270 268 265 262 258 256 255 256 258 262 266 269 273 276 275 273 273 275 275 275 276 276 276 276 276 277 280 284 286 287 289 290 291 292 293 293 292 292 292 292 292 291 291 291 290 290 290 292 293 294 295 297 301 303 305 307 308 307 306 305 305 305
238 240 242 242 242 244 247 250 251 251 252 254 256 258 261 264 266 269 271 273 275 275 274 272 271 269 266 264 261 259 258 258 260 263 266 269 273 276 276 277 277 277 277 277 277 277 277 278 280 283 285 287 288 289 290 291 291 292 292 291 291 291 291 291 292 292 291 291 290 290 290 291 292 294 296 299 301 302 304 304 304 303 303 302 302
238 241 243 243 242 243 247 250 252 253 253 254 256 257 260 263 265 267 270 272 274 275 274 273 271 270 269 268 266 264 262 261 260 261 263 266 270 273 275 276 277 277 277 277 278 278 279 281 283 284 286 288 289 289 289 289 289 289 289 289 289 290 291 291 291 291 291 290 289 289 290 290 291 293 295 298 299 301 302 303 304 304 304 303 303
238 239 243 244 243 243 247 250 252 253 252 253 254 256 259 261 263 266 268 271 273 274 275 274 272 270 269 269 269 268 267 265 263 263 263 265 267 270 273 276 277 278 278 278 279 280 282 283 284 284 286 288 288 287 286 285 285 285 286 287 289 290 290 290 291 291 291 290 289 290 290 291 293 294 297 299 300 301 303 305 306 306 306 305 304
237 239 242 244 244 244 246 248 250 252 252 252 253 255 258 260 262 264 267 269 271 274 276 276 275 272 270 268 269 270 269 267 266 264 263 264 265 267 270 274 276 277 278 279 281 283 284 283 282 282 283 284 283 282 281 281 283 285 287 288 289 290 290 291 291 291 291 291 291 291 292 293 295 297 299 300 301 302 304 306 307 306 305 305 305
238 239 242 243 244 245 246 248 249 251 251 252 253 255 257 260 261 263 265 268 271 273 276 278 277 274 271 269 268 268 268 267 266 265 265 264 265 266 267 269 272 275 277 280 282 282 280 278 278 278 278 278 278 279 280 281 283 286 288 289 290 290 290 290 291 292 292 292 293 293 294 296 297 299 301 302 303 304 305 306 305 304 303 304 306
239 240 242 243 244 245 246 247 249 250 251 252 254 256 258 260 261 264 266 269 271 274 277 279 279 277 274 272 269 268 267 267 266 267 267 266 266 266 267 268 270 273 275 278 279 279 276 275 275 275 276 277 278 279 281 282 284 286 287 288 289 290 290 290 290 291 292 292 293 294 296 297 299 300 302 303 303 303 303 302 301 301 300 301 304
240 241 242 243 244 245 246 248 249 250 251 253 255 257 259 261 263 265 267 269 271 274 276 278 279 278 276 273 271 269 268 268 268 268 268 268 268 268 268 269 270 272 273 275 276 277 276 275 274 274 276 277 278 279 281 282 284 285 286 287 288 289 288 288 289 290 291 292 294 296 298 300 302 303 304 305 303 301 300 299 298 297 297 299 303
241 242 243 243 244 245 247 248 250 251 252 254 256 257 259 261 263 265 267 269 270 272 274 276 278 278 276 273 271 270 269 269 269 269 269 269 269 269 269 269 270 270 271 273 274 274 275 275 275 275 276 276 277 278 279 281 283 284 284 286 287 287 288 288 289 291 293 295 298 300 301 303 305 306 307 307 305 303 301 299 295 293 295 298 301
242 243 243 245 246 247 249 250 251 252 253 254 256 258 259 261 263 264 266 268 269 270 273 275 276 277 276 273 271 270 270 270 270 269 269 269 269 269 269 269 269 270 270 271 271 271 272 273 273 274 274 275 275 276 278 279 281 282 284 285 285 286 287 288 290 293 294 296 298 300 301 304 308 310 312 311 308 305 305 301 295 292 293 296 300
243 244 246 248 249 250 251 252 253 253 254 255 257 258 259 260 262 265 266 267 268 270 272 274 276 277 276 274 272 272 271 271 271 271 271 271 271 271 270 269 269 269 269 270 269 270 271 271 272 272 273 274 275 276 277 278 279 281 283 283 284 286 287 288 290 293 293 295 298 300 303 307 311 312 313 310 305 303 304 303 297 291 291 295 299
244 247 248 250 252 253 254 255 255 255 256 257 258 258 260 261 263 264 266 267 268 270 272 274 276 277 276 275 273 273 273 273 273 273 273 273 273 273 272 272 271 270 270 269 269 269 270 270 270 272 273 274 275 276 277 278 279 280 281 282 284 285 287 288 289 290 291 295 300 302 302 304 303 299 297 296 294 294 298 299 296 292 290 293 297
249 255 257 257 258 258 257 257 257 257 257 257 259 259 260 262 263 264 266 267 267 269 271 274 275 275 275 274 274 273 273 273 273 273 273 273 273 273 273 272 271 270 270 269 269 269 269 270 271 272 273 274 275 276 276 277 278 279 281 282 284 285 286 287 288 290 292 296 298 297 294 290 284 280 280 282 284 288 293 295 293 291 291 293 296
248 255 260 263 264 264 261 258 258 258 257 257 258 259 260 262 263 264 265 266 266 268 270 272 273 274 275 275 274 273 272 272 273 274 274 274 273 273 272 271 271 271 271 270 270 271 271 272 272 273 274 274 275 276 277 278 279 280 281 283 283 284 286 288 289 290 292 293 291 290 288 283 278 276 278 280 283 287 292 295 293 292 294 297 298
240 243 248 255 260 263 263 261 258 257 257 257 257 258 260 261 262 263 264 264 265 267 269 270 271 273 274 274 274 272 271 272 273 274 274 273 273 272 272 272 272 273 272 272 272 272 272 272 273 274 274 274 275 276 278 278 280 281 282 283 283 285 287 290 291 291 291 290 288 287 287 285 281 280 281 282 283 286 289 293 295 296 298 300 300
236 236 239 246 253 258 262 263 260 256 255 255 255 256 258 259 260 262 262 263 264 265 267 268 271 273 274 274 274 272 272 272 273 273 273 272 272 271 272 272 271 271 271 271 271 272 272 273 274 274 275 275 276 277 278 280 282 283 284 284 285 287 289 289 287 287 288 289 288 289 291 290 286 285 285 284 284 286 288 291 293 296 297 296 296
233 231 232 238 246 252 256 260 261 260 256 255 255 256 258 259 261 262 262 262 263 264 266 268 270 272 273 274 275 274 273 272 271 271 272 271 271 271 270 270 269 270 271 272 272 273 274 274 275 275 275 276 277 278 279 281 282 284 285 287 289 290 292 290 285 286 291 294 292 292 292 288 283 281 282 283 286 288 289 290 292 294 294 294 294
232 230 227 230 237 245 250 254 259 260 257 253 253 255 256 258 259 260 261 261 263 264 266 268 269 271 272 275 275 275 274 272 271 270 270 271 271 271 270 269 269 270 272 273 273 274 274 275 275 276 277 278 279 279 280 281 281 281 282 283 283 285 288 287 282 280 283 284 282 281 282 281 280 280 281 282 286 288 288 288 291 293 294 296 297
235 233 230 227 229 238 245 249 252 255 255 253 252 253 255 257 258 259 260 262 264 265 266 267 268 270 272 274 275 274 273 272 271 270 270 270 271 271 270 270 270 271 273 273 274 275 275 276 276 277 278 280 281 281 281 283 283 281 277 273 271 271 273 275 274 273 271 270 270 273 275 276 278 280 281 281 283 286 287 290 293 294 295 296 297
232 233 232 229 229 234 240 243 246 250 252 253 254 254 255 257 258 259 261 262 263 264 266 267 268 271 273 274 273 273 272 271 270 270 271 271 271 271 270 270 271 272 273 274 275 276 277 277 278 279 281 281 282 282 282 282 281 280 276 272 269 267 267 269 272 275 275 274 275 276 276 275 276 279 281 282 284 286 289 292 294 295 295 296 297
222 227 231 232 232 234 237 240 244 250 254 256 256 255 255 256 257 258 260 261 263 264 266 267 269 271 273 274 273 272 271 271 271 272 272 272 272 272 271 272 272 273 274 275 276 277 278 278 279 280 280 281 281 281 282 281 278 276 275 274 275 275 273 271 273 275 276 277 279 280 279 279 281 283 286 287 288 289 290 292 293 294 295 296 297
216 220 228 233 235 235 237 239 243 249 255 256 255 254 255 256 257 258 259 261 263 264 266 268 270 272 273 273 273 272 271 271 271 272 273 273 274 273 272 273 274 275 275 276 278 278 278 278 279 279 280 280 280 280 280 280 279 278 276 275 275 274 272 271 271 272 274 277 280 282 282 282 284 285 287 288 289 289 289 291 292 294 295 296 297
218 218 224 231 235 236 237 239 242 246 250 253 254 255 256 257 258 259 260 262 263 265 267 269 270 271 272 272 271 271 271 271 272 272 272 274 274 273 273 275 278 278 278 278 279 279 279 279 279 279 279 279 279 280 280 280 280 279 277 275 272 271 271 271 272 273 274 278 280 282 283 283 285 286 287 288 289 289 290 292 293 295 295 296 297
224 221 223 230 236 238 240 242 244 246 249 252 254 257 258 258 259 260 261 262 263 265 267 268 269 269 269 269 269 269 270 271 271 270 270 271 271 272 274 277 279 279 279 278 277 276 277 278 279 279 279 279 279 279 280 281 280 279 279 278 276 275 275 276 276 277 278 280 281 281 282 283 284 286 287 288 289 290 292 293 294 295 296 296 297
231 228 226 228 234 239 241 243 244 247 249 251 253 255 256 257 258 259 260 261 262 263 264 265 266 266 267 268 269 269 268 268 267 266 266 267 270 273 277 279 280 280 280 279 278 277 278 279 279 279 279 280 280 280 280 281 281 280 280 280 280 280 280 280 281 282 282 283 283 283 283 284 285 287 288 289 290 291 292 294 295 295 296 296 297
232 233 231 229 231 234 238 241 243 245 247 249 251 253 255 256 258 259 260 261 262 263 263 263 263 264 266 268 268 266 264 263 263 263 265 269 273 277 279 280 279 279 279 279 279 278 279 279 279 279 279 280 280 280 281 281 281 281 281 281 281 281 281 281 282 283 283 283 284 284 285 285 287 288 289 290 291 292 293 294 295 296 296 297 297
231 232 233 233 233 234 237 240 243 245 246 248 251 253 255 256 257 258 260 262 263 262 262 261 262 262 263 264 263 262 262 262 263 265 269 273 275 276 277 277 278 278 279 279 278 278 278 278 279 279 279 280 280 280 281 281 281 281 281 281 281 281 281 281 282 282 283 283 284 284 285 286 287 288 290 291 292 293 293 294 294 295 296 297 298
231 231 232 233 233 235 237 239 242 245 248 250 252 254 255 255 255 256 259 260 261 260 259 258 258 258 259 259 260 261 263 264 265 267 271 273 274 274 274 275 276 276 277 277 277 277 277 277 278 278 279 279 280 280 280 281 281 281 281 281 281 281 281 281 281 282 282 283 284 284 286 287 288 289 290 291 292 293 293 293 293 294 295 297 298
227 230 233 234 234 234 236 238 239 242 245 248 250 252 253 254 255 257 258 258 256 255 253 253 253 255 257 259 261 263 264 265 266 269 272 274 275 275 275 275 275 275 275 275 275 275 275 276 276 277 277 277 278 278 279 279 279 279 279 279 280 280 280 280 281 282 282 283 284 285 287 288 289 290 291 291 292 292 292 292 293 294 296 298 299
Height
11000 11001 11003 11004 11006 11006 11006 11007 11009 11011 11013 11014 11016 11018 11019 11020 11022 11023 11024 11025 11026 11027 11027 11028 11028 11029 11029 11029 11029 11029 11029 11029 11029 11028 11028 11028 11027 11027 11027 11026 11026 11026 11025 11025 11024 11024 11024 11023 11022 11021 11021 11020 11019 11017 11016 11015 11014 11012 11011 11009 11008 11006 11004 11003 11002 11001 11001 11000 11000 10998 10997 10996 10995 10993 10992 10991 10990 10989 10988 10986 10985 10984 10982 10980 10978
10999 11000 11001 11002 11004 11005 11005 11006 11007 11008 11010 11011 11013 11015 11016 11017 11019 11020 11021 11022 11024 11025 11025 11026 11027 11027 11028 11028 11028 11028 11028 11028 11028 11027 11027 11026 11026 11026 11026 11026 11025 11025 11025 11024 11024 11023 11023 11023 11022 11021 11020 11020 11019 11018 11017 11016 11014 11013 11012 11010 11008 11007 11005 11004 11002 11001 11000 11000 10999 10998 10997 10995 10994 10993 10992 10991 10990 10989 10987 10985 10983 10982 10981 10979 10978
10997 10998 10999 11000 11002 11004 11005 11005 11005 11006 11007 11008 11010 11012 11013 11015 11016 11017 11019 11020 11021 11022 11023 11024 11025 11025 11026 11026 11027 11027 11027 11027 11026 11026 11026 11025 11025 11025 11024 11024 11024 11024 11023 11023 11023 11022 11022 11022 11021 11021 11020 11019 11019 11018 11017 11016 11015 11014 11012 11011 11009 11008 11006 11004 11002 11001 11000 10999 10999 10998 10997 10995 10994 10993 10992 10991 10990 10989 10986 10984 10981 10979 10978 10978 10978
10995 10996 10997 10998 11000 11001 11002 11003 11003 11004 11004 11005 11007 11009 11010 11012 11013 11014 11016 11017 11018 11019 11021 11021 11022 11023 11024 11024 11025 11025 11025 11025 11025 11024 11024 11024 11023 11023 11023 11023 11023 11022 11022 11022 11021 11021 11021 11021 11020 11020 11019 11019 11018 11018 11017 11016 11015 11014 11013 11011 11010 11008 11007 11005 11003 11001 10999 10998 10998 10997 10997 10995 10993 10992 10992 10991 10990 10988 10986 10983 10981 10980 10979 10978 10978
10992 10993 10994 10995 10997 10998 10999 11000 11001 11001 11002 11003 11004 11006 11007 11009 11010 11011 11013 11015 11015 11017 11018 11019 11020 11021 11022 11022 11023 11023 11023 11023 11023 11023 11022 11022 11022 11021 11021 11021 11021 11021 11021 11020 11020 11020 11019 11020 11019 11019 11019 11018 11018 11017 11016 11016 11015 11014 11013 11011 11010 11009 11007 11005 11003 11001 10999 10998 10997 10996 10996 10995 10993 10991 10991 10990 10988 10987 10985 10983 10981 10980 10979 10978 10978
10990 10990 10992 10992 10994 10995 10997 10998 10998 10998 10999 11001 11003 11004 11005 11006 11007 11009 11010 11012 11012 11013 11015 11016 11017 11018 11019 11020 11020 11020 11020 11020 11021 11021 11021 11021 11020 11020 11020 11019 11019 11019 11019 11019 11019 11018 11018 11018 11018 11018 11017 11017 11017 11016 11016 11015 11014 11013 11012 11011 11010 11008 11007 11005 11004 11002 11000 10998 10996 10995 10995 10994 10993 10991 10989 10988 10986 10985 10984 10983 10981 10979 10978 10977 10977
10987 10988 10989 10990 10991 10992 10993 10995 10996 10996 10997 10999 11001 11002 11002 11003 11004 11005 11007 11008 11009 11010 11011 11013 11014 11015 11016 11017 11017 11017 11017 11017 11018 11019 11019 11019 11018 11018 11018 11018 11017 11017 11017 11017 11017 11016 11016 11016 11016 11016 11016 11015 11015 11015 11015 11014 11014 11013 11012 11010 11009 11008 11006 11005 11003 11002 11000 10998 10996 10995 10994 10994 10993 10990 10988 10986 10986 10985 10984 10983 10981 10979 10977 10975 10974
10984 10985 10986 10986 10988 10989 10991 10992 10994 10995 10995 10997 10998 10999 11000 11000 11001 11002 11003 11005 11006 11007 11008 11009 11011 11012 11012 11013 11013 11014 11014 11014 11015 11016 11016 11016 11016 11015 11015 11016 11016 11015 11015 11015 11014 11014 11014 11013 11013 11013 11014 11014 11013 11013 11013 11013 11012 11012 11011 11010 11009 11007 11006 11004 11003 11001 11000 10998 10996 10995 10994 10993 10991 10989 10987 10985 10985 10984 10983 10983 10982 10980 10977 10974 10972
10981 10982 10983 10983 10985 10987 10988 10990 10991 10992 10993 10994 10995 10997 10997 10998 10998 10999 11000 11001 11002 11004 11005 11006 11007 11008 11009 11009 11010 11010 11010 11011 11012 11013 11013 11013 11013 11013 11013 11013 11013 11013 11013 11013 11012 11012 11012 11011 11011 11011 11011 11012 11011 11011 11011 11011 11011 11010 11010 11009 11007 11006 11005 11004 11002 11001 10999 10998 10996 10994 10992 10991 10990 10989 10986 10985 10984 10983 10982 10982 10980 10979 10977 10974 10971
10979 10980 10980 10981 10983 10984 10985 10987 10988 10989 10990 10991 10991 10993 10995 10996 10996 10996 10997 10998 10999 11000 11001 11002 11003 11004 11005 11005 11006 11007 11007 11007 11009 11009 11010 11010 11009 11010 11010 11010 11010 11010 11010 11010 11010 11010 11009 11009 11009 11008 11008 11009 11009 11009 11009 11009 11009 11009 11008 11007 11006 11005 11004 11003 11001 11000 10998 10997 10995 10993 10991 10989 10989 10988 10986 10984 10983 10981 10980 10979 10978 10977 10975 10973 10970
10976 10977 10978 10978 10980 10982 10983 10984 10985 10986 10987 10987 10988 10990 10991 10992 10993 10993 10994 10995 10996 10997 10997 10998 10999 11000 11001 11002 11002 11003 11003 11004 11005 11006 11006 11006 11006 11006 11007 11007 11007 11007 11007 11007 11007 11007 11007 11007 11006 11006 11006 11006 11006 11007 11007 11007 11007 11006 11006 11005 11004 11003 11002 11001 11000 10998 10996 10995 10994 10992 10990 10988 10987 10987 10986 10984 10982 10980 10978 10977 10976 10974 10972 10971 10969
10973 10975 10976 10976 10977 10979 10980 10981 10982 10983 10983 10984 10985 10986 10987 10989 10989 10989 10991 10992 10993 10994 10995 10995 10995 10997 10998 10998 10999 10999 10999 11000 11002 11003 11003 11003 11003 11003 11003 11004 11004 11004 11004 11004 11004 11004 11004 11004 11004 11003 11003 11003 11003 11004 11004 11004 11004 11004 11004 11003 11002 11001 11000 10999 10998 10997 10995 10993 10992 10991 10990 10988 10986 10984 10984 10983 10981 10979 10977 10975 10974 10973 10971 10969 10967
10970 10972 10973 10974 10974 10975 10977 10978 10978 10979 10980 10981 10982 10983 10983 10984 10985 10985 10986 10988 10990 10991 10991 10991 10992 10993 10994 10995 10995 10995 10996 10997 10998 10999 11000 11000 10999 10999 11000 11000 11001 11001 11001 11001 11001 11001 11001 11001 11001 11001 11000 11000 11000 11000 11001 11001 11001 11001 11001 11000 11000 10999 10998 10997 10996 10995 10993 10992 10991 10990 10988 10987 10985 10983 10982 10981 10979 10977 10976 10974 10973 10971 10970 10968 10966
10966 10968 10969 10970 10970 10972 10973 10975 10975 10975 10976 10977 10978 10979 10980 10980 10981 10981 10982 10984 10986 10987 10987 10988 10989 10990 10990 10991 10991 10992 10992 10993 10994 10995 10996 10996 10996 10996 10996 10996 10997 10997 10998 10998 10998 10998 10998 10998 10998 10998 10998 10997 10997 10997 10997 10997 10997 10997 10998 10997 10997 10996 10996 10995 10994 10992 10991 10990 10989 10988 10987 10985 10983 10981 10980 10979 10977 10976 10974 10973 10971 10969 10968 10966 10965
10962 10963 10965 10966 10967 10968 10969 10971 10972 10972 10972 10973 10975 10976 10976 10977 10977 10978 10978 10979 10981 10983 10983 10985 10986 10986 10987 10987 10988 10988 10989 10989 10990 10991 10992 10993 10992 10992 10992 10992 10993 10994 10995 10995 10995 10995 10995 10994 10994 10994 10994 10994 10994 10994 10994 10994 10993 10993 10994 10994 10993 10993 10992 10992 10991 10990 10988 10987 10986 10986 10985 10984 10982 10980 10978 10977 10975 10974 10972 10971 10969 10967 10965 10964 10962
10957 10959 10961 10962 10963 10964 10965 10967 10968 10968 10969 10970 10971 10972 10973 10973 10974 10974 10975 10975 10977 10979 10980 10980 10981 10982 10983 10984 10984 10985 10985 10985 10985 10987 10988 10989 10989 10988 10988 10988 10989 10990 10991 10992 10992 10992 10991 10991 10991 10991 10991 10990 10990 10990 10990 10990 10990 10989 10990 10990 10990 10989 10989 10988 10988 10987 10985 10984 10983 10982 10982 10981 10980 10979 10977 10975 10973 10971 10970 10968 10966 10964 10963 10961 10960
10952 10954 10956 10958 10959 10960 10961 10963 10964 10964 10965 10967 10968 10969 10970 10970 10970 10971 10972 10972 10973 10974 10975 10976 10977 10978 10980 10980 10980 10980 10981 10981 10981 10983 10984 10985 10984 10983 10983 10984 10985 10986 10987 10988 10988 10988 10988 10988 10987 10987 10987 10987 10986 10986 10986 10986 10986 10986 10986 10986 10986 10985 10985 10984 10984 10983 10981 10980 10979 10978 10978 10978 10977 10976 10975 10973 10971 10969 10967 10965 10963 10961 10960 10959 10957
10948 10950 10951 10953 10955 10956 10958 10959 10960 10960 10961 10963 10964 10966 10966 10967 10967 10967 10968 10969 10969 10970 10972 10972 10973 10974 10976 10976 10976 10976 10977 10977 10977 10978 10980 10980 10980 10979 10979 10979 10981 10982 10983 10984 10984 10984 10984 10984 10983 10983 10983 10983 10982 10982 10982 10982 10982 10982 10982 10982 10982 10981 10981 10980 10979 10978 10978 10977 10975 10974 10973 10973 10972 10972 10971 10970 10968 10966 10964 10962 10960 10958 10957 10955 10954
10943 10944 10946 10949 10951 10953 10954 10956 10956 10956 10957 10958 10960 10962 10963 10963 10964 10964 10964 10965 10965 10966 10967 10968 10969 10969 10971 10972 10972 10973 10973 10973 10973 10973 10975 10975 10975 10975 10974 10974 10976 10977 10979 10979 10979 10979 10979 10979 10979 10979 10979 10978 10977 10977 10978 10978 10978 10978 10978 10977 10977 10977 10976 10976 10975 10974 10973 10972 10971 10970 10969 10968 10967 10966 10966 10965 10964 10963 10961 10959 10957 10955 10952 10951 10949
10938 10940 10942 10945 10947 10948 10950 10951 10952 10952 10953 10955 10956 10957 10958 10960 10960 10960 10961 10961 10961 10962 10963 10964 10964 10965 10966 10968 10968 10969 10969 10969 10968 10968 10970 10971 10971 10971 10969 10969 10971 10973 10974 10974 10974 10974 10975 10975 10975 10975 10975 10974 10973 10973 10973 10973 10973 10973 10973 10973 10972 10972 10971 10971 10970 10969 10968 10968 10967 10966 10964 10963 10962 10961 10960 10959 10959 10958 10957 10955 10953 10951 10948 10946 10945
10934 10936 10938 10940 10941 10943 10945 10947 10948 10949 10950 10952 10953 10953 10954 10955 10956 10957 10958 10958 10958 10958 10958 10959 10960 10961 10962 10964 10964 10965 10965 10965 10964 10964 10965 10966 10966 10966 10965 10964 10966 10968 10969 10969 10970 10970 10971 10971 10971 10971 10971 10970 10969 10968 10968 10969 10969 10969 10969 10968 10968 10967 10967 10966 10966 10965 10964 10963 10962 10961 10960 10959 10958 10957 10956 10954 10953 10952 10951 10950 10948 10946 10944 10943 10941
10930 10931 10933 10935 10937 10938 10940 10942 10944 10946 10948 10949 10949 10949 10950 10952 10952 10953 10954 10954 10954 10954 10955 10955 10956 10957 10958 10959 10960 10960 10960 10961 10960 10960 10961 10962 10962 10962 10960 10960 10962 10964 10964 10965 10965 10966 10966 10966 10966 10966 10966 10966 10965 10964 10964 10964 10964 10964 10964 10963 10963 10963 10962 10961 10961 10960 10960 10959 10958 10956 10955 10954 10954 10953 10951 10950 10949 10947 10946 10945 10944 10942 10941 10940 10938
10925 10926 10928 10931 10933 10934 10935 10937 10940 10942 10944 10945 10946 10946 10947 10948 10949 10949 10950 10950 10950 10951 10951 10951 10952 10953 10954 10954 10955 10955 10956 10957 10956 10955 10957 10958 10958 10958 10957 10956 10957 10959 10960 10960 10961 10962 10962 10961 10961 10961 10962 10962 10960 10959 10959 10959 10959 10960 10960 10958 10958 10958 10957 10957 10956 10956 10955 10955 10954 10953 10952 10951 10950 10949 10948 10947 10946 10944 10943 10943 10942 10940 10938 10937 10935
10920 10922 10924 10927 10929 10929 10930 10932 10935 10939 10941 10942 10943 10943 10943 10945 10945 10945 10946 10947 10946 10947 10947 10948 10948 10949 10949 10950 10950 10951 10952 10952 10952 10951 10953 10955 10955 10954 10953 10952 10953 10954 10955 10955 10956 10957 10957 10957 10957 10957 10957 10957 10956 10955 10954 10953 10953 10954 10955 10954 10953 10953 10952 10952 10952 10951 10951 10951 10950 10949 10948 10947 10947 10946 10945 10945 10944 10942 10941 10940 10939 10937 10935 10933 10931
10917 10917 10918 10922 10925 10925 10926 10928 10931 10934 10937 10938 10938 10939 10940 10941 10942 10941 10942 10943 10943 10943 10943 10944 10944 10944 10945 10945 10945 10946 10947 10948 10947 10948 10949 10950 10950 10950 10949 10948 10948 10949 10951 10951 10951 10952 10953 10953 10953 10952 10952 10952 10952 10951 10949 10948 10948 10948 10949 10949 10948 10948 10947 10947 10947 10947 10946 10946 10946 10945 10944 10944 10943 10943 10943 10942 10940 10939 10938 10936 10934 10932 10930 10928 10927
10912 10912 10912 10916 10920 10921 10923 10924 10926 10930 10932 10933 10934 10934 10936 10937 10937 10937 10938 10938 10938 10939 10939 10940 10940 10940 10940 10940 10940 10941 10943 10943 10942 10943 10944 10945 10944 10944 10944 10944 10944 10945 10946 10947 10947 10947 10948 10949 10948 10948 10947 10947 10947 10946 10945 10944 10943 10943 10943 10944 10943 10943 10942 10942 10942 10942 10942 10942 10941 10941 10940 10940 10939 10939 10939 10938 10936 10934 10933 10931 10929 10927 10925 10923 10921
10906 10906 10907 10911 10915 10917 10919 10920 10921 10925 10927 10928 10928 10930 10932 10933 10933 10933 10933 10934 10934 10934 10935 10935 10936 10935 10935 10936 10936 10937 10938 10938 10937 10937 10938 10938 10939 10939 10940 10940 10939 10940 10941 10942 10943 10944 10944 10944 10943 10943 10943 10942 10941 10941 10940 10939 10938 10938 10938 10939 10939 10938 10938 10937 10937 10937 10937 10937 10937 10936 10936 10936 10935 10934 10934 10933 10931 10930 10928 10926 10924 10922 10919 10917 10916
10899 10901 10903 10907 10910 10912 10914 10915 10917 10920 10921 10922 10924 10926 10927 10928 10928 10928 10929 10929 10930 10930 10931 10931 10931 10931 10931 10931 10931 10932 10932 10932 10931 10931 10931 10932 10933 10934 10934 10934 10935 10935 10936 10938 10939 10940 10939 10939 10938 10938 10938 10937 10937 10936 10936 10935 10935 10934 10934 10934 10934 10934 10933 10932 10932 10932 10932 10932 10932 10932 10931 10931 10930 10929 10928 10927 10925 10923 10922 10920 10918 10916 10914 10913 10911
10893 10896 10900 10903 10905 10906 10908 10910 10912 10915 10916 10917 10919 10921 10922 10923 10923 10923 10924 10925 10926 10926 10926 10926 10926 10926 10926 10927 10927 10927 10926 10926 10926 10925 10925 10927 10928 10929 10929 10930 10930 10931 10932 10933 10934 10934 10934 10933 10933 10933 10933 10933 10933 10932 10931 10931 10931 10930 10929 10929 10928 10928 10928 10927 10927 10927 10927 10927 10927 10927 10926 10926 10925 10924 10923 10921 10919 10917 10915 10914 10912 10910 10909 10908 10906
10888 10892 10896 10899 10899 10901 10902 10905 10908 10910 10911 10913 10914 10916 10917 10918 10918 10919 10919 10920 10921 10921 10921 10921 10921 10921 10921 10922 10922 10921 10920 10921 10921 10921 10920 10921 10923 10924 10924 10925 10925 10926 10927 10928 10929 10929 10928 10928 10928 10928 10928 10928 10928 10927 10927 10927 10926 10926 10925 10924 10923 10923 10923 10921 10922 10922 10922 10922 10922 10923 10922 10921 10921 10919 10918 10917 10914 10911 10909 10908 10906 10904 10903 10902 10901
10883 10888 10892 10893 10894 10895 10898 10901 10904 10905 10907 10908 10910 10911 10912 10913 10913 10914 10914 10915 10916 10916 10915 10915 10916 10916 10916 10916 10916 10915 10915 10916 10916 10916 10915 10915 10917 10918 10919 10920 10920 10920 10921 10923 10924 10923 10923 10923 10923 10923 10924 10924 10923 10923 10923 10922 10921 10920 10921 10920 10919 10918 10918 10916 10917 10918 10918 10917 10917 10918 10917 10917 10916 10915 10913 10911 10909 10906 10903 10901 10899 10898 10898 10896 10895
10878 10883 10887 10888 10890 10892 10894 10897 10899 10901 10902 10904 10905 10906 10907 10908 10908 10908 10909 10910 10911 10910 10910 10910 10910 10911 10911 10911 10910 10909 10910 10911 10911 10911 10911 10910 10911 10912 10913 10914 10915 10914 10916 10917 10918 10918 10918 10918 10917 10917 10918 10918 10918 10918 10918 10918 10916 10915 10916 10915 10914 10913 10913 10912 10912 10913 10913 10912 10912 10912 10912 10912 10911 10909 10907 10905 10903 10900 10897 10895 10893 10892 10891 10890 10890
10873 10879 10883 10885 10886 10888 10890 10893 10895 10897 10898 10899 10900 10901 10902 10903 10903 10903 10903 10904 10905 10905 10905 10904 10905 10905 10905 10905 10905 10904 10905 10906 10906 10906 10906 10905 10905 10906 10908 10909 10909 10909 10909 10911 10911 10912 10912 10912 10911 10911 10911 10912 10913 10912 10912 10913 10912 10911 10910 10910 10909 10908 10908 10908 10909 10908 10907 10907 10907 10907 10906 10905 10904 10904 10904 10903 10900 10896 10892 10889 10887 10886 10885 10884 10884
10871 10876 10879 10880 10881 10883 10886 10888 10890 10892 10893 10894 10895 10896 10897 10898 10898 10898 10898 10899 10899 10900 10899 10899 10899 10899 10900 10900 10900 10900 10900 10900 10901 10901 10901 10901 10901 10901 10902 10903 10904 10904 10903 10904 10904 10905 10905 10905 10904 10905 10905 10906 10907 10907 10906 10906 10907 10906 10905 10904 10904 10904 10903 10903 10904 10903 10902 10902 10902 10900 10898 10897 10896 10897 10899 10898 10893 10889 10886 10884 10882 10881 10879 10877 10877
10873 10876 10877 10877 10876 10877 10879 10882 10884 10886 10888 10889 10890 10890 10891 10892 10893 10892 10892 10893 10894 10894 10894 10894 10893 10893 10894 10895 10895 10895 10895 10896 10896 10896 10896 10896 10896 10896 10896 10897 10897 10897 10897 10897 10897 10897 10897 10897 10898 10898 10899 10899 10900 10900 10899 10900 10900 10901 10900 10899 10899 10899 10898 10897 10898 10897 10896 10897 10896 10893 10890 10890 10888 10886 10886 10886 10882 10880 10879 10877 10876 10874 10872 10870 10869
10873 10876 10879 10878 10874 10870 10871 10874 10877 10879 10881 10882 10883 10884 10884 10886 10886 10886 10887 10888 10888 10888 10888 10888 10887 10888 10889 10890 10890 10890 10891 10891 10891 10891 10891 10891 10891 10890 10890 10890 10891 10891 10891 10891 10891 10891 10891 10891 10891 10892 10893 10893 10892 10892 10893 10893 10894 10894 10894 10894 10893 10892 10891 10891 10891 10890 10889 10890 10889 10885 10884 10884 10882 10879 10878 10878 10875 10873 10872 10871 10869 10867 10866 10863 10862
10865 10869 10876 10880 10876 10869 10865 10865 10867 10870 10872 10874 10875 10876 10877 10878 10879 10880 10881 10882 10883 10882 10881 10881 10882 10883 10884 10884 10884 10885 10885 10886 10886 10886 10886 10886 10885 10885 10885 10885 10885 10885 10884 10884 10885 10884 10884 10884 10885 10886 10886 10885 10886 10886 10887 10887 10887 10887 10888 10888 10887 10886 10886 10884 10883 10882 10882 10882 10880 10878 10877 10878 10877 10875 10873 10872 10869 10867 10866 10865 10863 10861 10860 10857 10855
10859 10862 10869 10875 10875 10871 10865 10860 10859 10859 10860 10863 10865 10867 10869 10871 10872 10874 10875 10876 10876 10875 10874 10874 10876 10878 10878 10878 10879 10879 10880 10881 10881 10881 10881 10881 10880 10880 10880 10880 10880 10878 10877 10878 10878 10878 10878 10878 10879 10879 10879 10879 10880 10880 10880 10881 10882 10882 10881 10881 10881 10882 10881 10879 10876 10875 10874 10874 10873 10871 10871 10873 10873 10869 10866 10865 10864 10863 10861 10859 10857 10855 10853 10851 10849
10853 10856 10860 10866 10872 10873 10870 10864 10858 10852 10848 10851 10855 10858 10860 10862 10865 10867 10869 10868 10868 10867 10867 10868 10870 10871 10871 10872 10873 10875 10875 10876 10875 10875 10875 10875 10875 10876 10876 10875 10873 10872 10872 10872 10872 10873 10873 10873 10873 10874 10873 10872 10873 10874 10875 10876 10877 10877 10876 10874 10874 10876 10876 10874 10871 10869 10868 10868 10867 10865 10865 10867 10865 10861 10859 10859 10858 10856 10854 10852 10850 10848 10847 10845 10842
10845 10850 10853 10859 10867 10873 10873 10869 10860 10848 10840 10841 10846 10849 10850 10853 10857 10860 10861 10861 10860 10860 10860 10861 10863 10864 10865 10866 10868 10869 10870 10869 10869 10869 10869 10869 10870 10870 10870 10869 10867 10867 10867 10867 10866 10867 10868 10868 10868 10868 10867 10866 10867 10868 10869 10871 10873 10874 10873 10870 10868 10870 10870 10866 10862 10861 10862 10863 10862 10859 10858 10857 10855 10853 10852 10852 10849 10847 10845 10844 10843 10841 10839 10837 10834
10843 10848 10852 10855 10859 10865 10868 10866 10858 10844 10834 10832 10835 10838 10840 10844 10849 10852 10854 10854 10854 10852 10852 10853 10855 10856 10859 10862 10863 10864 10863 10863 10862 10862 10862 10863 10864 10864 10864 10862 10861 10862 10862 10861 10860 10861 10862 10862 10862 10861 10861 10861 10861 10862 10863 10865 10865 10867 10868 10866 10864 10864 10863 10856 10851 10852 10855 10856 10854 10852 10850 10849 10848 10846 10846 10845 10841 10838 10836 10835 10834 10833 10832 10829 10827
10840 10842 10844 10846 10847 10850 10853 10852 10845 10834 10826 10824 10827 10830 10834 10838 10842 10845 10847 10848 10846 10844 10843 10844 10846 10849 10852 10856 10857 10857 10857 10856 10855 10855 10856 10857 10857 10858 10857 10856 10856 10856 10856 10855 10855 10855 10855 10855 10856 10856 10856 10856 10855 10855 10857 10859 10859 10860 10861 10860 10859 10859 10858 10852 10847 10846 10848 10847 10846 10844 10844 10843 10842 10840 10840 10839 10835 10832 10829 10827 10825 10824 10822 10820 10818
10833 10834 10833 10832 10832 10833 10835 10834 10828 10820 10817 10819 10823 10825 10828 10832 10834 10837 10839 10839 10837 10836 10836 10838 10840 10842 10845 10848 10850 10850 10849 10848 10848 10849 10850 10850 10851 10851 10850 10850 10851 10851 10850 10849 10849 10849 10849 10850 10850 10850 10850 10850 10849 10849 10850 10852 10854 10854 10854 10854 10854 10855 10854 10850 10846 10843 10841 10839 10838 10837 10837 10836 10834 10832 10831 10830 10827 10825 10822 10820 10818 10816 10813 10811 10809
10821 10826 10823 10817 10816 10819 10821 10820 10816 10813 10812 10816 10819 10820 10822 10825 10826 10828 10829 10830 10830 10829 10830 10831 10834 10836 10838 10840 10842 10841 10840 10840 10841 10843 10843 10844 10844 10844 10844 10845 10845 10844 10844 10844 10843 10843 10843 10844 10844 10844 10843 10843 10843 10843 10843 10845 10846 10847 10847 10848 10849 10847 10844 10842 10841 10838 10834 10832 10831 10831 10830 10828 10826 10824 10823 10822 10819 10817 10815 10813 10811 10808 10805 10802 10800
10807 10815 10813 10807 10806 10809 10809 10807 10806 10806 10807 10810 10812 10813 10814 10817 10818 10819 10821 10822 10823 10823 10824 10825 10828 10830 10832 10833 10833 10832 10832 10833 10834 10836 10837 10837 10838 10838 10838 10839 10838 10837 10838 10838 10838 10837 10836 10836 10837 10837 10836 10836 10835 10835 10835 10837 10838 10838 10837 10839 10841 10838 10835 10833 10833 10831 10829 10827 10826 10824 10822 10820 10818 10817 10815 10813 10811 10808 10807 10805 10803 10800 10797 10794 10792
10794 10804 10808 10806 10806 10807 10804 10801 10800 10800 10801 10803 10805 10806 10807 10809 10811 10812 10814 10814 10815 10816 10817 10819 10821 10823 10823 10824 10824 10824 10824 10825 10827 10828 10830 10830 10831 10831 10832 10832 10831 10831 10831 10832 10832 10831 10829 10829 10829 10828 10828 10828 10828 10828 10828 10829 10830 10829 10828 10829 10830 10829 10827 10825 10824 10822 10821 10821 10820 10817 10814 10812 10810 10809 10807 10805 10802 10799 10797 10796 10794 10792 10789 10786 10783
10781 10790 10797 10800 10802 10803 10799 10795 10794 10794 10794 10795 10796 10798 10799 10801 10803 10805 10806 10807 10808 10809 10810 10811 10812 10814 10814 10815 10816 10816 10816 10817 10818 10820 10822 10823 10823 10824 10824 10824 10824 10824 10823 10823 10824 10823 10822 10821 10821 10820 10820 10820 10820 10820 10820 10820 10820 10820 10819 10819 10819 10818 10817 10815 10813 10812 10812 10812 10810 10808 10805 10803 10801 10800 10799 10796 10793 10790 10788 10786 10784 10782 10780 10777 10774
10768 10775 10781 10786 10788 10788 10786 10784 10785 10786 10786 10787 10788 10790 10792 10794 10796 10798 10799 10800 10800 10801 10802 10802 10803 10805 10806 10806 10807 10807 10808 10809 10810 10812 10813 10815 10816 10816 10815 10815 10816 10815 10815 10815 10815 10814 10814 10813 10813 10812 10812 10811 10811 10811 10811 10811 10811 10811 10810 10809 10809 10808 10807 10806 10804 10803 10802 10801 10800 10798 10795 10793 10791 10790 10789 10786 10783 10781 10778 10776 10773 10771 10769 10767 10764
10754 10761 10766 10771 10773 10774 10773 10773 10776 10777 10778 10779 10780 10782 10784 10786 10788 10790 10792 10793 10794 10794 10794 10793 10794 10795 10797 10798 10798 10799 10799 10800 10802 10803 10805 10808 10809 10808 10807 10806 10807 10807 10806 10806 10806 10806 10806 10805 10804 10804 10803 10803 10802 10802 10802 10802 10802 10801 10800 10800 10799 10798 10797 10796 10795 10793 10792 10791 10789 10787 10785 10783 10782 10780 10778 10775 10773 10771 10769 10766 10763 10761 10758 10756 10753
10741 10747 10752 10756 10758 10761 10762 10764 10765 10767 10768 10770 10772 10774 10776 10778 10780 10782 10784 10784 10785 10786 10785 10784 10784 10785 10787 10788 10790 10790 10791 10792 10793 10794 10795 10798 10800 10800 10799 10799 10799 10799 10798 10798 10798 10797 10797 10796 10795 10795 10795 10794 10793 10793 10792 10792 10792 10791 10791 10790 10789 10788 10787 10785 10784 10783 10782 10780 10778 10776 10775 10773 10771 10770 10767 10765 10763 10761 10758 10756 10753 10751 10748 10745 10742
10729 10736 10742 10744 10746 10749 10752 10754 10756 10757 10759 10761 10763 10765 10768 10770 10772 10774 10775 10775 10775 10775 10775 10775 10775 10776 10777 10779 10781 10782 10783 10784 10785 10786 10787 10788 10789 10790 10790 10790 10790 10790 10790 10790 10789 10788 10788 10787 10786 10786 10785 10785 10784 10784 10783 10782 10782 10781 10780 10779 10778 10777 10775 10774 10773 10772 10770 10768 10767 10766 10764 10762 10760 10759 10756 10754 10752 10750 10747 10745 10742 10740 10737 10734 10731